EWG424 EDDK-LFMN

Flight info

Callsign EWG424
Flight time 1h 26m
Altitude 36000
Route KUMIK1R/31R KUMIK Y854 BOMBI DCT GIGET DCT ABUKA DCT KRH DCT NATOR/N0441F370 DCT TRA DCT RIPUS DCT GERSA DCT SOSON DCT ODINA DCT ENOBA Z185 ASBOP/N0371F190 Z185 BORDI
Aircraft A319/M-SDE3FGHIRWY/LB1

Departure

Time 2026-04-26 13:36
Airport Cologne Bonn Airport (EDDK)

Arrival

Time 2026-04-26 15:02
Airport Nice-Côte d'Azur Airport (LFMN)
Time Latitude Longitude Altitude Speed Heading
2026-04-26 13:04 50.88057 7.12187 232 ft 0 kts 216°
2026-04-26 13:25 50.88075 7.12206 230 ft 4 kts 202°
2026-04-26 13:25 50.88092 7.12215 230 ft 4 kts 186°
2026-04-26 13:25 50.88126 7.12206 234 ft 4 kts 144°
2026-04-26 13:26 50.88137 7.12190 231 ft 2 kts 126°
2026-04-26 13:26 50.88138 7.12188 231 ft 0 kts 126°
2026-04-26 13:29 50.88138 7.12189 231 ft 0 kts 126°
2026-04-26 13:29 50.88129 7.12207 232 ft 6 kts 126°
2026-04-26 13:29 50.88103 7.12277 232 ft 9 kts 107°
2026-04-26 13:30 50.88075 7.12372 230 ft 11 kts 133°
2026-04-26 13:30 50.88020 7.12467 231 ft 13 kts 134°
2026-04-26 13:30 50.87951 7.12567 230 ft 14 kts 138°
2026-04-26 13:30 50.87853 7.12615 230 ft 16 kts 175°
2026-04-26 13:31 50.87758 7.12713 230 ft 17 kts 137°
2026-04-26 13:31 50.87668 7.12844 230 ft 19 kts 137°
2026-04-26 13:31 50.87574 7.12981 230 ft 21 kts 137°
2026-04-26 13:31 50.87466 7.13138 232 ft 21 kts 137°
2026-04-26 13:32 50.87351 7.13303 233 ft 23 kts 137°
2026-04-26 13:32 50.87235 7.13476 237 ft 23 kts 136°
2026-04-26 13:32 50.87119 7.13642 240 ft 23 kts 139°
2026-04-26 13:32 50.87001 7.13811 243 ft 23 kts 137°
2026-04-26 13:33 50.86872 7.13995 244 ft 28 kts 139°
2026-04-26 13:33 50.86718 7.14164 253 ft 26 kts 152°
2026-04-26 13:33 50.86587 7.14348 258 ft 26 kts 136°
2026-04-26 13:33 50.86453 7.14544 262 ft 26 kts 140°
2026-04-26 13:34 50.86325 7.14740 266 ft 25 kts 135°
2026-04-26 13:34 50.86193 7.14920 270 ft 25 kts 138°
2026-04-26 13:34 50.86068 7.15102 276 ft 23 kts 132°
2026-04-26 13:34 50.86051 7.15266 276 ft 24 kts 76°
2026-04-26 13:35 50.86246 7.15330 277 ft 25 kts 347°
2026-04-26 13:35 50.86432 7.15233 268 ft 31 kts 328°
2026-04-26 13:35 50.86640 7.14949 262 ft 60 kts 317°
2026-04-26 13:35 50.87089 7.14298 258 ft 113 kts 317°
2026-04-26 13:36 50.87789 7.13285 261 ft 157 kts 319°
2026-04-26 13:36 50.88577 7.12129 875 ft 154 kts 319°
2026-04-26 13:36 50.89471 7.11213 1458 ft 157 kts 343°
2026-04-26 13:36 50.90617 7.11154 1759 ft 178 kts 14°
2026-04-26 13:37 50.91792 7.12111 2036 ft 202 kts 31°
2026-04-26 13:37 50.93007 7.13375 2580 ft 214 kts 40°
2026-04-26 13:37 50.93952 7.15272 3274 ft 231 kts 61°
2026-04-26 13:37 50.94718 7.17675 3807 ft 254 kts 63°
2026-04-26 13:38 50.95510 7.20201 4635 ft 262 kts 63°
2026-04-26 13:38 50.96329 7.22825 5550 ft 267 kts 62°
2026-04-26 13:38 50.97167 7.25496 6478 ft 272 kts 62°
2026-04-26 13:38 50.98019 7.28203 7338 ft 277 kts 62°
2026-04-26 13:39 50.98887 7.30959 8216 ft 281 kts 61°
2026-04-26 13:39 50.99767 7.33745 9074 ft 285 kts 60°
2026-04-26 13:39 51.00665 7.36587 9943 ft 289 kts 60°
2026-04-26 13:39 51.01400 7.39602 10650 ft 302 kts 72°
2026-04-26 13:40 51.01654 7.43014 10891 ft 329 kts 89°
2026-04-26 13:40 51.01243 7.46700 11333 ft 346 kts 106°
2026-04-26 13:40 51.00498 7.50351 12020 ft 350 kts 106°
2026-04-26 13:40 50.99753 7.54072 12747 ft 354 kts 106°
2026-04-26 13:41 50.99009 7.57837 13468 ft 358 kts 106°
2026-04-26 13:41 50.98262 7.61650 14176 ft 362 kts 107°
2026-04-26 13:41 50.97524 7.65435 14802 ft 366 kts 106°
2026-04-26 13:41 50.96770 7.69309 15433 ft 369 kts 107°
2026-04-26 13:42 50.96005 7.73217 16054 ft 372 kts 107°
2026-04-26 13:42 50.95229 7.77166 16684 ft 376 kts 107°
2026-04-26 13:42 50.94374 7.81104 17298 ft 379 kts 114°
2026-04-26 13:42 50.93112 7.84788 17922 ft 382 kts 124°
2026-04-26 13:43 50.91629 7.88306 18540 ft 385 kts 124°
2026-04-26 13:43 50.90135 7.91859 19090 ft 389 kts 124°
2026-04-26 13:43 50.88653 7.95393 19628 ft 391 kts 124°
2026-04-26 13:43 50.87142 7.99000 20181 ft 394 kts 124°
2026-04-26 13:44 50.85622 8.02636 20754 ft 397 kts 124°
2026-04-26 13:44 50.83928 8.06109 21297 ft 399 kts 134°
2026-04-26 13:44 50.81865 8.09071 21840 ft 400 kts 144°
2026-04-26 13:44 50.79529 8.11513 22369 ft 403 kts 149°
2026-04-26 13:45 50.77176 8.13869 22896 ft 406 kts 149°
2026-04-26 13:45 50.74791 8.16265 23405 ft 409 kts 149°
2026-04-26 13:45 50.72374 8.18699 23897 ft 412 kts 149°
2026-04-26 13:45 50.69950 8.21143 24311 ft 414 kts 149°
2026-04-26 13:46 50.67508 8.23604 24731 ft 417 kts 149°
2026-04-26 13:46 50.65054 8.26071 25146 ft 419 kts 149°
2026-04-26 13:46 50.62588 8.28547 25558 ft 422 kts 149°
2026-04-26 13:46 50.60104 8.31031 25971 ft 424 kts 149°
2026-04-26 13:47 50.57634 8.33496 26361 ft 427 kts 149°
2026-04-26 13:47 50.55113 8.36004 26768 ft 429 kts 149°
2026-04-26 13:47 50.52584 8.38518 27166 ft 431 kts 149°
2026-04-26 13:47 50.50043 8.41048 27661 ft 431 kts 149°
2026-04-26 13:48 50.47498 8.43581 28110 ft 432 kts 149°
2026-04-26 13:48 50.44950 8.46115 28526 ft 434 kts 149°
2026-04-26 13:48 50.42424 8.48623 28921 ft 436 kts 149°
2026-04-26 13:48 50.39853 8.51166 29312 ft 438 kts 149°
2026-04-26 13:49 50.37255 8.53714 29697 ft 440 kts 150°
2026-04-26 13:49 50.34592 8.56137 30081 ft 441 kts 153°
2026-04-26 13:49 50.31915 8.58403 30404 ft 444 kts 154°
2026-04-26 13:49 50.29162 8.60638 30637 ft 448 kts 154°
2026-04-26 13:50 50.26369 8.62877 30896 ft 451 kts 154°
2026-04-26 13:50 50.23579 8.65130 31160 ft 454 kts 154°
2026-04-26 13:50 50.20770 8.67429 31430 ft 456 kts 154°
2026-04-26 13:50 50.17957 8.69761 31700 ft 459 kts 154°
2026-04-26 13:51 50.15128 8.72125 32016 ft 460 kts 153°
2026-04-26 13:51 50.12304 8.74492 32399 ft 459 kts 153°
2026-04-26 13:51 50.09480 8.76677 32763 ft 458 kts 160°
2026-04-26 13:51 50.06464 8.78184 33108 ft 455 kts 170°
2026-04-26 13:52 50.03354 8.78908 33467 ft 451 kts 179°
2026-04-26 13:52 50.00225 8.78866 33830 ft 448 kts 188°
2026-04-26 13:52 49.97135 8.78253 34215 ft 447 kts 191°
2026-04-26 13:52 49.94050 8.77606 34560 ft 446 kts 191°
2026-04-26 13:53 49.90966 8.76966 34879 ft 446 kts 190°
2026-04-26 13:53 49.87884 8.76331 35207 ft 446 kts 190°
2026-04-26 13:53 49.84816 8.75698 35519 ft 445 kts 190°
2026-04-26 13:53 49.81736 8.75066 35823 ft 445 kts 190°
2026-04-26 13:54 49.78698 8.74444 36121 ft 445 kts 190°
2026-04-26 13:54 49.75619 8.73810 36236 ft 445 kts 191°
2026-04-26 13:54 49.72554 8.73175 36248 ft 443 kts 191°
2026-04-26 13:55 49.64409 8.71498 36249 ft 443 kts 190°
2026-04-26 13:56 49.54246 8.69461 36246 ft 442 kts 190°
2026-04-26 13:56 49.48132 8.68232 36246 ft 442 kts 190°
2026-04-26 13:57 49.42063 8.67018 36233 ft 442 kts 190°
2026-04-26 13:57 49.35950 8.65780 36237 ft 441 kts 190°
2026-04-26 13:58 49.29882 8.64541 36237 ft 441 kts 190°
2026-04-26 13:58 49.23771 8.63314 36237 ft 441 kts 190°
2026-04-26 13:59 49.17681 8.62106 36226 ft 441 kts 190°
2026-04-26 13:59 49.11634 8.60889 36230 ft 441 kts 190°
2026-04-26 14:00 48.99451 8.58442 36229 ft 441 kts 191°
2026-04-26 14:01 48.93427 8.56785 36217 ft 439 kts 195°
2026-04-26 14:01 48.87472 8.54707 36222 ft 439 kts 196°
2026-04-26 14:02 48.81534 8.52643 36219 ft 439 kts 195°
2026-04-26 14:02 48.75577 8.50715 36204 ft 439 kts 195°
2026-04-26 14:03 48.69588 8.48825 36209 ft 439 kts 195°
2026-04-26 14:03 48.63598 8.46914 36214 ft 439 kts 195°
2026-04-26 14:04 48.57652 8.45011 36211 ft 439 kts 195°
2026-04-26 14:04 48.51670 8.43101 36211 ft 439 kts 195°
2026-04-26 14:05 48.45688 8.41194 36208 ft 439 kts 195°
2026-04-26 14:05 48.39709 8.39298 36203 ft 439 kts 195°
2026-04-26 14:06 48.33768 8.37418 36196 ft 439 kts 195°
2026-04-26 14:06 48.27781 8.35519 36199 ft 439 kts 195°
2026-04-26 14:07 48.21809 8.33630 36201 ft 439 kts 195°
2026-04-26 14:07 48.15717 8.32623 36204 ft 444 kts 180°
2026-04-26 14:08 48.09608 8.33924 36192 ft 447 kts 173°
2026-04-26 14:08 48.03520 8.35410 36195 ft 447 kts 173°
2026-04-26 14:09 47.97384 8.36884 36193 ft 447 kts 174°
2026-04-26 14:09 47.91249 8.38347 36182 ft 446 kts 174°
2026-04-26 14:10 47.85112 8.39817 36187 ft 446 kts 174°
2026-04-26 14:10 47.80067 8.41030 36188 ft 446 kts 173°
2026-04-26 14:11 47.69859 8.43475 36195 ft 446 kts 174°
2026-04-26 14:11 47.63713 8.44664 36205 ft 444 kts 177°
2026-04-26 14:12 47.58599 8.45356 36200 ft 443 kts 178°
2026-04-26 14:12 47.52451 8.46135 36193 ft 443 kts 178°
2026-04-26 14:13 47.43236 8.47468 36191 ft 442 kts 177°
2026-04-26 14:14 47.37154 8.48373 36190 ft 442 kts 177°
2026-04-26 14:14 47.31016 8.49275 36187 ft 442 kts 177°
2026-04-26 14:15 47.24926 8.50161 36180 ft 442 kts 177°
2026-04-26 14:15 47.18793 8.51052 36182 ft 441 kts 177°
2026-04-26 14:16 47.12668 8.51939 36183 ft 441 kts 177°
2026-04-26 14:16 47.06584 8.52817 36173 ft 442 kts 178°
2026-04-26 14:17 47.00457 8.53710 36179 ft 441 kts 177°
2026-04-26 14:17 46.94332 8.54602 36177 ft 441 kts 178°
2026-04-26 14:18 46.88245 8.55480 36172 ft 441 kts 178°
2026-04-26 14:18 46.82114 8.56360 36161 ft 441 kts 178°
2026-04-26 14:19 46.76039 8.57228 36160 ft 441 kts 178°
2026-04-26 14:19 46.69927 8.58092 36146 ft 440 kts 178°
2026-04-26 14:20 46.63817 8.58958 36126 ft 440 kts 178°
2026-04-26 14:20 46.57747 8.59825 36130 ft 440 kts 178°
2026-04-26 14:21 46.51648 8.60694 36136 ft 440 kts 178°
2026-04-26 14:21 46.45550 8.61560 36117 ft 439 kts 178°
2026-04-26 14:22 46.39453 8.62427 36099 ft 440 kts 178°
2026-04-26 14:22 46.33403 8.63271 36092 ft 439 kts 178°
2026-04-26 14:23 46.27310 8.64121 36084 ft 439 kts 178°
2026-04-26 14:23 46.21211 8.64982 36069 ft 439 kts 178°
2026-04-26 14:24 46.15116 8.65836 36073 ft 439 kts 178°
2026-04-26 14:24 46.09077 8.66189 36071 ft 435 kts 188°
2026-04-26 14:25 46.03099 8.64978 36068 ft 433 kts 191°
2026-04-26 14:25 45.97118 8.63746 36086 ft 433 kts 191°
2026-04-26 14:26 45.91153 8.62541 36097 ft 432 kts 191°
2026-04-26 14:26 45.85231 8.61343 36099 ft 431 kts 191°
2026-04-26 14:27 45.79286 8.60135 36092 ft 431 kts 191°
2026-04-26 14:27 45.73343 8.58941 36097 ft 430 kts 191°
2026-04-26 14:28 45.67391 8.57740 36107 ft 430 kts 191°
2026-04-26 14:28 45.61491 8.56549 36072 ft 430 kts 191°
2026-04-26 14:29 45.55552 8.55347 36070 ft 430 kts 191°
2026-04-26 14:29 45.49659 8.54159 36070 ft 430 kts 191°
2026-04-26 14:30 45.43718 8.52971 36085 ft 430 kts 191°
2026-04-26 14:30 45.37792 8.51789 36094 ft 430 kts 191°
2026-04-26 14:31 45.31870 8.50604 36088 ft 430 kts 191°
2026-04-26 14:31 45.25940 8.49418 36087 ft 430 kts 191°
2026-04-26 14:32 45.20036 8.48241 36075 ft 430 kts 191°
2026-04-26 14:32 45.14099 8.47065 36084 ft 430 kts 191°
2026-04-26 14:33 45.08202 8.45898 35503 ft 429 kts 191°
2026-04-26 14:33 45.05241 8.45313 34901 ft 431 kts 191°
2026-04-26 14:33 45.02259 8.44720 34288 ft 432 kts 191°
2026-04-26 14:33 44.99270 8.44129 33711 ft 431 kts 191°
2026-04-26 14:34 44.96320 8.43553 33365 ft 424 kts 191°
2026-04-26 14:34 44.93409 8.42984 32915 ft 420 kts 191°
2026-04-26 14:34 44.90560 8.42429 32435 ft 417 kts 191°
2026-04-26 14:34 44.87687 8.41868 31924 ft 415 kts 191°
2026-04-26 14:35 44.84833 8.41311 31424 ft 413 kts 191°
2026-04-26 14:35 44.81992 8.40753 30945 ft 410 kts 191°
2026-04-26 14:35 44.79162 8.40198 30479 ft 408 kts 191°
2026-04-26 14:35 44.76394 8.39656 30007 ft 405 kts 191°
2026-04-26 14:36 44.73610 8.39108 29487 ft 403 kts 191°
2026-04-26 14:36 44.70836 8.38561 29011 ft 399 kts 191°
2026-04-26 14:36 44.68095 8.38025 28548 ft 397 kts 191°
2026-04-26 14:36 44.65372 8.37501 28099 ft 393 kts 191°
2026-04-26 14:37 44.62669 8.36977 27669 ft 391 kts 191°
2026-04-26 14:37 44.59988 8.36458 27248 ft 388 kts 190°
2026-04-26 14:37 44.57316 8.35939 26843 ft 385 kts 191°
2026-04-26 14:37 44.54662 8.35418 26453 ft 382 kts 191°
2026-04-26 14:38 44.52038 8.34904 26077 ft 380 kts 191°
2026-04-26 14:38 44.49429 8.34402 25690 ft 377 kts 191°
2026-04-26 14:38 44.46840 8.33902 25287 ft 374 kts 190°
2026-04-26 14:38 44.45135 8.33572 25035 ft 372 kts 190°
2026-04-26 14:39 44.41750 8.32916 24526 ft 369 kts 190°
2026-04-26 14:39 44.39215 8.32426 24131 ft 366 kts 190°
2026-04-26 14:39 44.36692 8.31944 23750 ft 364 kts 189°
2026-04-26 14:39 44.34197 8.31416 23275 ft 360 kts 194°
2026-04-26 14:40 44.31840 8.30330 22799 ft 355 kts 206°
2026-04-26 14:40 44.29716 8.28587 22326 ft 351 kts 218°
2026-04-26 14:40 44.27932 8.26298 21859 ft 348 kts 230°
2026-04-26 14:40 44.26495 8.23598 21378 ft 346 kts 236°
2026-04-26 14:41 44.25153 8.20874 20918 ft 344 kts 236°
2026-04-26 14:41 44.23791 8.18133 20444 ft 343 kts 236°
2026-04-26 14:41 44.22432 8.15408 20017 ft 341 kts 236°
2026-04-26 14:41 44.21084 8.12705 19594 ft 339 kts 236°
2026-04-26 14:42 44.19740 8.10007 19158 ft 337 kts 236°
2026-04-26 14:42 44.18404 8.07326 18715 ft 336 kts 236°
2026-04-26 14:42 44.17072 8.04654 18135 ft 337 kts 236°
2026-04-26 14:42 44.15704 8.01913 17032 ft 351 kts 236°
2026-04-26 14:43 44.14276 7.99052 15953 ft 370 kts 236°
2026-04-26 14:43 44.12738 7.95964 15404 ft 399 kts 237°
2026-04-26 14:43 44.11161 7.92800 15203 ft 406 kts 236°
2026-04-26 14:43 44.09536 7.89558 15143 ft 408 kts 236°
2026-04-26 14:44 44.07902 7.86310 15155 ft 409 kts 236°
2026-04-26 14:44 44.06267 7.83061 15155 ft 409 kts 236°
2026-04-26 14:44 44.04637 7.79825 15152 ft 409 kts 235°
2026-04-26 14:44 44.02999 7.76584 14937 ft 405 kts 236°
2026-04-26 14:45 44.01407 7.73442 14278 ft 402 kts 234°
2026-04-26 14:45 44.00157 7.71482 13803 ft 402 kts 223°
2026-04-26 14:45 43.97213 7.68314 12741 ft 398 kts 217°
2026-04-26 14:45 43.95036 7.66032 11972 ft 395 kts 217°
2026-04-26 14:46 43.92853 7.63725 11373 ft 394 kts 217°
2026-04-26 14:46 43.90662 7.61415 11178 ft 395 kts 217°
2026-04-26 14:46 43.88472 7.59106 11148 ft 395 kts 217°
2026-04-26 14:46 43.86278 7.56798 11158 ft 396 kts 217°
2026-04-26 14:47 43.84070 7.54484 11162 ft 397 kts 217°
2026-04-26 14:47 43.81898 7.52205 11154 ft 396 kts 217°
2026-04-26 14:47 43.79710 7.49905 11157 ft 395 kts 217°
2026-04-26 14:47 43.77511 7.47599 11159 ft 397 kts 217°
2026-04-26 14:48 43.75316 7.45275 11159 ft 397 kts 217°
2026-04-26 14:48 43.73123 7.42956 11157 ft 389 kts 217°
2026-04-26 14:48 43.71033 7.40746 11165 ft 367 kts 217°
2026-04-26 14:48 43.69056 7.38654 11141 ft 347 kts 217°
2026-04-26 14:49 43.67179 7.36667 10953 ft 334 kts 217°
2026-04-26 14:49 43.65345 7.34727 10476 ft 329 kts 217°
2026-04-26 14:49 43.63539 7.32820 9998 ft 324 kts 217°
2026-04-26 14:49 43.61764 7.30945 9474 ft 319 kts 217°
2026-04-26 14:50 43.60039 7.29110 8969 ft 316 kts 217°
2026-04-26 14:50 43.58315 7.27260 8462 ft 312 kts 217°
2026-04-26 14:50 43.56614 7.25416 7963 ft 309 kts 217°
2026-04-26 14:50 43.54931 7.23582 7471 ft 306 kts 217°
2026-04-26 14:51 43.53272 7.21766 6988 ft 303 kts 217°
2026-04-26 14:51 43.51634 7.19964 6503 ft 300 kts 217°
2026-04-26 14:51 43.50008 7.18172 6000 ft 297 kts 217°
2026-04-26 14:51 43.48419 7.16427 5508 ft 294 kts 217°
2026-04-26 14:52 43.46831 7.14681 5090 ft 288 kts 217°
2026-04-26 14:52 43.45309 7.13011 4997 ft 267 kts 217°
2026-04-26 14:52 43.43929 7.11487 5000 ft 244 kts 217°
2026-04-26 14:52 43.42666 7.10090 5000 ft 223 kts 217°
2026-04-26 14:53 43.41494 7.08786 5005 ft 218 kts 217°
2026-04-26 14:53 43.40316 7.07483 5019 ft 216 kts 217°
2026-04-26 14:53 43.39149 7.06194 5008 ft 214 kts 217°
2026-04-26 14:53 43.37987 7.04909 5006 ft 213 kts 217°
2026-04-26 14:54 43.36830 7.03631 5006 ft 213 kts 217°
2026-04-26 14:54 43.35698 7.02353 5002 ft 214 kts 222°
2026-04-26 14:54 43.34962 7.00591 5003 ft 217 kts 257°
2026-04-26 14:54 43.35076 6.98540 4850 ft 219 kts 291°
2026-04-26 14:55 43.35932 6.96813 4504 ft 220 kts 310°
2026-04-26 14:55 43.36977 6.95279 4186 ft 219 kts 313°
2026-04-26 14:55 43.38204 6.94063 4007 ft 218 kts 338°
2026-04-26 14:55 43.39182 6.93750 4012 ft 219 kts 358°
2026-04-26 14:56 43.41184 6.94110 4012 ft 219 kts 11°
2026-04-26 14:56 43.42682 6.94475 4010 ft 217 kts 11°
2026-04-26 14:56 43.43685 6.94720 4002 ft 215 kts 12°
2026-04-26 14:56 43.45140 6.95080 4009 ft 215 kts 12°
2026-04-26 14:57 43.46582 6.95582 4006 ft 213 kts 25°
2026-04-26 14:57 43.47834 6.96666 4011 ft 212 kts 43°
2026-04-26 14:57 43.48882 6.98096 4014 ft 211 kts 46°
2026-04-26 14:57 43.49894 6.99478 4001 ft 196 kts 46°
2026-04-26 14:58 43.50836 7.00762 4024 ft 192 kts 46°
2026-04-26 14:58 43.51790 7.02060 3717 ft 191 kts 46°
2026-04-26 14:58 43.52733 7.03341 3450 ft 188 kts 46°
2026-04-26 14:58 43.53656 7.04600 3191 ft 186 kts 46°
2026-04-26 14:59 43.54562 7.05839 2944 ft 185 kts 46°
2026-04-26 14:59 43.55471 7.07081 2700 ft 183 kts 46°
2026-04-26 14:59 43.56369 7.08309 2457 ft 181 kts 46°
2026-04-26 14:59 43.56956 7.09114 2300 ft 181 kts 46°
2026-04-26 15:00 43.58161 7.10765 1972 ft 182 kts 46°
2026-04-26 15:00 43.59055 7.11991 1731 ft 181 kts 46°
2026-04-26 15:00 43.59950 7.13214 1489 ft 181 kts 46°
2026-04-26 15:00 43.60842 7.14434 1252 ft 181 kts 47°
2026-04-26 15:01 43.61726 7.15648 1018 ft 182 kts 46°
2026-04-26 15:01 43.62619 7.16876 763 ft 174 kts 46°
2026-04-26 15:01 43.63420 7.17978 559 ft 153 kts 46°
2026-04-26 15:01 43.64132 7.18959 363 ft 139 kts 47°
2026-04-26 15:02 43.64806 7.19875 205 ft 135 kts 47°
2026-04-26 15:02 43.65464 7.20791 44 ft 133 kts 48°
2026-04-26 15:02 43.66033 7.21583 21 ft 97 kts 45°
2026-04-26 15:02 43.66389 7.22069 23 ft 46 kts 44°
2026-04-26 15:03 43.66522 7.22072 22 ft 8 kts 316°
2026-04-26 15:03 43.66534 7.22056 22 ft 0 kts 315°
2026-04-26 15:03 43.66537 7.22052 22 ft 2 kts 315°
2026-04-26 15:04 43.66539 7.22049 22 ft 0 kts 314°
2026-04-26 15:04 43.66544 7.22038 22 ft 2 kts 302°
2026-04-26 15:04 43.66551 7.21993 22 ft 7 kts 266°
2026-04-26 15:04 43.66525 7.21933 22 ft 9 kts 226°
2026-04-26 15:05 43.66470 7.21857 22 ft 14 kts 225°
2026-04-26 15:05 43.66420 7.21788 22 ft 16 kts 225°
2026-04-26 15:05 43.66321 7.21635 22 ft 12 kts 258°
2026-04-26 15:05 43.66365 7.21558 22 ft 9 kts 315°
2026-04-26 15:06 43.66409 7.21501 22 ft 7 kts 316°
2026-04-26 15:06 43.66429 7.21472 22 ft 2 kts 318°
2026-04-26 15:06 43.66445 7.21455 22 ft 0 kts 320°